| time (UTC) | temp C | wind direction | speed KPH | gust KPH | rain 1hr cm | rain 24hr cm | rain mn cm | humidity % | barometer mb |
| 20260507080211 | 8 | 274 | 27.4 | 0.0 | 0.00 | 0.00 | 0.20 | 93 | 1013.2 |
| 20260507073212 | 8 | 266 | 30.6 | 0.0 | 0.00 | 0.00 | 0.20 | 94 | 1013.1 |
| 20260507070212 | 7 | 250 | 25.7 | 0.0 | 0.00 | 0.00 | 0.18 | 95 | 1012.8 |
| 20260507063211 | 7 | 254 | 29.0 | 0.0 | 0.00 | 0.00 | 0.18 | 95 | 1012.6 |
| 20260507060211 | 7 | 259 | 19.3 | 0.0 | 0.00 | 0.00 | 0.15 | 94 | 1012.3 |
| 20260507053211 | 7 | 250 | 22.5 | 0.0 | 0.00 | 0.00 | 0.05 | 94 | 1012.2 |
| 20260507050213 | 7 | 266 | 24.1 | 0.0 | 0.00 | 0.00 | 0.03 | 93 | 1011.8 |
| 20260507043211 | 7 | 271 | 25.7 | 0.0 | 0.00 | 0.00 | 0.00 | 92 | 1011.5 |
| 20260507040216 | 7 | 256 | 17.7 | 0.0 | 0.00 | 0.00 | 0.00 | 92 | 1011.2 |
| 20260507033211 | 7 | 267 | 20.9 | 0.0 | 0.00 | 0.00 | 0.00 | 93 | 1011.1 |
| 20260507030211 | 7 | 247 | 17.7 | 0.0 | 0.00 | 0.00 | 0.00 | 92 | 1011.0 |
| 20260507023211 | 7 | 271 | 14.5 | 0.0 | 0.00 | 0.00 | 0.00 | 92 | 1011.0 |
| 20260507020211 | 7 | 284 | 25.7 | 0.0 | 0.00 | 0.00 | 0.00 | 91 | 1010.9 |
| 20260507013212 | 7 | 269 | 32.2 | 0.0 | 0.00 | 0.00 | 0.00 | 91 | 1010.4 |
| 20260507010211 | 7 | 294 | 27.4 | 0.0 | 0.00 | 0.00 | 0.00 | 92 | 1010.2 |
| 20260507003209 | 7 | 274 | 19.3 | 0.0 | 0.00 | 0.00 | 0.00 | 94 | 1010.2 |
| 20260507000209 | 7 | 248 | 8.0 | 0.0 | 0.00 | 0.00 | 0.00 | 93 | 1010.2 |
| 20260506233209 | 7 | 254 | 14.5 | 0.0 | 0.00 | 0.00 | 0.00 | 93 | 1010.1 |
| 20260506230209 | 7 | 266 | 16.1 | 0.0 | 0.00 | 0.00 | 0.00 | 94 | 1009.8 |
| 20260506223209 | 7 | 282 | 14.5 | 0.0 | 0.00 | 0.00 | 0.00 | 94 | 1009.9 |
| 20260506220209 | 7 | 265 | 14.5 | 0.0 | 0.00 | 0.00 | 0.00 | 94 | 1009.7 |
| 20260506213209 | 7 | 248 | 14.5 | 0.0 | 0.00 | 0.00 | 0.61 | 93 | 1009.8 |
| 20260506210210 | 7 | 249 | 16.1 | 0.0 | 0.00 | 0.00 | 0.61 | 93 | 1009.8 |
| 20260506203210 | 8 | 281 | 16.1 | 0.0 | 0.00 | 0.00 | 0.61 | 91 | 1009.6 |
| 20260506200210 | 8 | 294 | 20.9 | 0.0 | 0.00 | 0.00 | 0.61 | 91 | 1009.4 |
| 20260506193215 | 8 | 269 | 25.7 | 0.0 | 0.00 | 0.00 | 0.61 | 91 | 1009.0 |
| 20260506190211 | 8 | 284 | 25.7 | 0.0 | 0.00 | 0.00 | 0.61 | 91 | 1008.4 |
| 20260506183209 | 8 | 225 | 24.1 | 0.0 | 0.00 | 0.00 | 0.61 | 91 | 1008.1 |
| 20260506180216 | 9 | 253 | 14.5 | 0.0 | 0.00 | 0.00 | 0.61 | 92 | 1008.0 |
| 20260506173210 | 8 | 271 | 29.0 | 0.0 | 0.00 | 0.00 | 0.61 | 91 | 1007.7 |
| 20260506170215 | 9 | 256 | 25.7 | 0.0 | 0.00 | 0.00 | 0.61 | 93 | 1007.5 |
| 20260506163210 | 8 | 262 | 24.1 | 0.0 | 0.00 | 0.00 | 0.61 | 93 | 1007.1 |
| 20260506160210 | 8 | 259 | 38.6 | 0.0 | 0.00 | 0.00 | 0.56 | 93 | 1007.3 |
| 20260506153210 | 8 | 239 | 35.4 | 0.0 | 0.00 | 0.00 | 0.53 | 94 | 1007.2 |
| 20260506150210 | 8 | 257 | 51.5 | 0.0 | 0.00 | 0.00 | 0.53 | 94 | 1006.6 |
| 20260506143210 | 8 | 282 | 66.0 | 0.0 | 0.00 | 0.00 | 0.23 | 91 | 1006.8 |
| 20260506140210 | 15 | 261 | 32.2 | 0.0 | 0.00 | 0.00 | 0.05 | 77 | 1004.8 |
| 20260506133211 | 15 | 222 | 17.7 | 0.0 | 0.00 | 0.00 | 0.05 | 80 | 1004.5 |
| 20260506130211 | 13 | 214 | 12.9 | 0.0 | 0.00 | 0.00 | 0.03 | 81 | 1004.2 |
| 20260506123210 | 14 | 225 | 12.9 | 0.0 | 0.00 | 0.00 | 0.03 | 79 | 1004.6 |
| 20260506120210 | 15 | 267 | 17.7 | 0.0 | 0.00 | 0.00 | 0.03 | 77 | 1004.2 |
| 20260506113217 | 15 | 86 | 3.2 | 0.0 | 0.00 | 0.00 | 0.03 | 69 | 1004.0 |
| 20260506110210 | 15 | 201 | 1.6 | 0.0 | 0.00 | 0.00 | 0.03 | 68 | 1004.4 |
| 20260506100213 | 14 | 96 | 11.3 | 0.0 | 0.00 | 0.00 | 0.03 | 75 | 1004.7 |
| 20260506093211 | 13 | 104 | 12.9 | 0.0 | 0.00 | 0.00 | 0.03 | 81 | 1004.8 |
| 20260506090211 | 13 | 242 | 6.4 | 0.0 | 0.00 | 0.00 | 0.03 | 85 | 1005.1 |
| 20260506083211 | 12 | 261 | 6.4 | 0.0 | 0.00 | 0.00 | 0.03 | 80 | 1005.2 |